CDT,Max TemperatureF,Mean TemperatureF,Min TemperatureF,Max Dew PointF,MeanDew PointF,Min DewpointF,Max Humidity, Mean Humidity, Min Humidity, Max Sea Level PressureIn, Mean Sea Level PressureIn, Min Sea Level PressureIn, Max VisibilityMiles, Mean VisibilityMiles, Min VisibilityMiles, Max Wind SpeedMPH, Mean Wind SpeedMPH, Max Gust SpeedMPH,PrecipitationIn, CloudCover, Events, WindDirDegrees
2013-9-1,91,82,73,72,69,64,87,67,46,29.98,29.89,29.85,10,10,10,14,3,20,T,2,,306
2013-9-2,86,79,71,73,70,67,90,74,58,29.96,29.91,29.85,10,10,10,20,6,24,0.48,4,Rain-Thunderstorm,221
2013-9-3,90,79,67,72,67,61,93,66,38,30.02,29.96,29.91,10,10,10,12,3,16,0.00,2,,327
2013-9-4,89,76,62,66,62,60,93,66,38,30.13,30.08,30.01,10,10,10,8,1,12,0.00,0,,-1
2013-9-5,90,76,61,65,61,57,93,64,34,30.18,30.13,30.10,10,10,10,9,1,14,0.00,0,,70
2013-9-6,91,76,61,67,64,59,93,67,41,30.16,30.11,30.06,10,10,10,8,1,12,0.00,0,,110
2013-9-7,92,77,62,69,66,60,93,67,41,30.12,30.06,30.00,10,10,10,9,2,12,0.00,1,,253
2013-9-8,95,81,66,70,67,63,93,67,41,30.03,29.99,29.94,10,10,10,10,1,14,0.00,1,,279
2013-9-9,95,83,70,73,69,66,90,66,41,30.07,30.03,29.99,10,10,10,8,1,12,T,2,Rain,209
2013-9-10,93,82,70,74,71,68,93,71,49,30.17,30.13,30.08,10,10,10,10,2,13,T,2,Thunderstorm,121
2013-9-11,92,81,70,71,68,65,93,67,41,30.21,30.15,30.09,10,10,10,7,1,10,0.00,0,,163
2013-9-12,95,81,67,74,67,64,93,66,39,30.09,30.02,29.93,10,10,10,17,4,24,0.12,1,Rain-Thunderstorm,257
2013-9-13,87,76,64,68,58,50,90,60,30,29.99,29.95,29.91,10,10,10,14,5,22,0.00,1,,22
2013-9-14,81,69,56,55,50,46,86,59,32,30.07,30.03,30.00,10,10,10,9,4,15,0.00,0,,45
2013-9-15,88,70,52,60,55,50,93,61,29,30.13,30.09,30.06,10,10,10,10,2,13,0.00,0,,211
2013-9-16,91,74,57,65,58,53,93,61,29,30.17,30.13,30.09,10,10,10,9,2,13,0.00,0,,29
2013-9-17,92,78,64,67,62,59,87,62,37,30.17,30.12,30.06,10,10,10,9,3,13,0.00,0,,94
2013-9-18,86,77,67,66,65,63,87,71,55,30.19,30.13,30.07,10,10,10,12,5,16,0.00,2,,135
2013-9-19,90,78,65,65,64,63,87,64,41,30.16,30.09,30.03,10,10,10,9,4,12,0.00,0,,145
2013-9-20,90,78,65,71,66,62,87,66,44,30.03,29.94,29.83,10,10,10,14,5,18,0.46,4,Rain,171
2013-9-21,80,71,61,70,63,52,90,66,42,29.88,29.82,29.74,10,10,10,15,6,23,1.09,6,Rain,350
2013-9-22,81,70,59,54,51,48,78,56,33,29.93,29.89,29.86,10,10,10,13,5,20,0.00,0,,39
2013-9-23,84,68,51,60,56,48,89,65,40,29.99,29.94,29.91,10,10,10,9,3,14,0.00,1,,111
2013-9-24,75,69,63,67,65,59,90,82,74,29.98,29.92,29.84,10,10,10,13,6,17,T,7,,116
2013-9-25,83,75,66,67,66,63,93,74,54,29.87,29.83,29.79,10,10,10,7,2,10,0.25,6,Rain,108
2013-9-26,84,75,65,65,64,62,93,71,48,30.01,29.95,29.86,10,10,10,9,3,13,0.00,4,,103
2013-9-27,85,73,60,66,59,55,97,69,40,30.14,30.07,30.01,10,9,2,10,2,14,0.00,1,,117
2013-9-28,82,70,58,59,56,53,93,66,39,30.20,30.12,30.07,10,10,7,14,4,20,0.00,0,,134
2013-9-29,77,68,58,63,58,55,93,72,50,30.12,30.06,29.99,10,10,10,12,4,15,T,3,,141
2013-9-30,74,67,60,63,61,59,93,79,64,30.08,30.02,29.98,10,9,4,10,3,21,0.06,7,Rain,152